| time (UTC) | temp F | wind direction | speed MPH | gust MPH | rain 1hr in | rain 24hr in | rain mn in | humidity % | barometer mb |
| 20260905052122 | 93 | 323 | 5.0 | 8.0 | 0.00 | 0.00 | 0.00 | 31 | 1013.1 |
| 20260905051122 | 93 | 331 | 5.0 | 9.0 | 0.00 | 0.00 | 0.00 | 31 | 1012.9 |
| 20260905050122 | 93 | 342 | 4.0 | 8.0 | 0.00 | 0.00 | 0.00 | 30 | 1012.8 |
| 20260905045143 | 94 | 332 | 4.0 | 8.0 | 0.00 | 0.00 | 0.00 | 30 | 1012.7 |
| 20260905044143 | 94 | 329 | 4.0 | 7.0 | 0.00 | 0.00 | 0.00 | 31 | 1012.7 |
| 20260905043122 | 93 | 330 | 5.0 | 9.0 | 0.00 | 0.00 | 0.00 | 34 | 1012.7 |
| 20260905042122 | 92 | 347 | 3.0 | 4.0 | 0.00 | 0.00 | 0.00 | 40 | 1012.7 |
| 20260905041123 | 92 | 260 | 1.0 | 2.0 | 0.00 | 0.00 | 0.00 | 38 | 1012.6 |
| 20260905040122 | 92 | 260 | 1.0 | 2.0 | 0.00 | 0.00 | 0.00 | 39 | 1012.5 |
| 20260905035122 | 92 | 260 | 1.0 | 2.0 | 0.00 | 0.00 | 0.00 | 37 | 1012.3 |
| 20260905034123 | 92 | 260 | 0.0 | 2.0 | 0.00 | 0.00 | 0.00 | 38 | 1012.3 |
| 20260905033123 | 92 | 299 | 2.0 | 2.0 | 0.00 | 0.00 | 0.00 | 38 | 1012.1 |
| 20260905032122 | 91 | 259 | 2.0 | 2.0 | 0.00 | 0.00 | 0.00 | 39 | 1012.0 |
| 20260905031122 | 92 | 259 | 2.0 | 3.0 | 0.00 | 0.00 | 0.00 | 38 | 1012.0 |
| 20260905030123 | 92 | 335 | 2.0 | 3.0 | 0.00 | 0.00 | 0.00 | 38 | 1011.8 |
| 20260905025122 | 92 | 262 | 2.0 | 3.0 | 0.00 | 0.00 | 0.00 | 38 | 1011.7 |
| 20260905024123 | 92 | 261 | 2.0 | 3.0 | 0.00 | 0.00 | 0.00 | 37 | 1011.6 |
| 20260905023123 | 93 | 257 | 2.0 | 3.0 | 0.00 | 0.00 | 0.00 | 36 | 1011.4 |
| 20260905022144 | 94 | 259 | 1.0 | 2.0 | 0.00 | 0.00 | 0.00 | 35 | 1011.4 |
| 20260905021124 | 95 | 259 | 1.0 | 2.0 | 0.00 | 0.00 | 0.00 | 33 | 1011.4 |
| 20260905020144 | 95 | 340 | 2.0 | 3.0 | 0.00 | 0.00 | 0.00 | 33 | 1011.3 |
| 20260905015124 | 96 | 273 | 2.0 | 4.0 | 0.00 | 0.05 | 0.00 | 32 | 1011.2 |
| 20260905014123 | 96 | 311 | 3.0 | 6.0 | 0.00 | 0.05 | 0.00 | 32 | 1011.2 |
| 20260905013123 | 96 | 344 | 3.0 | 7.0 | 0.00 | 0.05 | 0.00 | 31 | 1011.1 |
| 20260905012123 | 96 | 323 | 2.0 | 3.0 | 0.00 | 0.05 | 0.00 | 31 | 1011.1 |
| 20260905011123 | 97 | 313 | 2.0 | 8.0 | 0.00 | 0.05 | 0.00 | 30 | 1011.0 |
| 20260905010123 | 97 | 332 | 3.0 | 6.0 | 0.00 | 0.05 | 0.00 | 30 | 1011.0 |
| 20260905005123 | 97 | 251 | 3.0 | 5.0 | 0.00 | 0.05 | 0.00 | 30 | 1011.1 |
| 20260905004145 | 97 | 323 | 3.0 | 9.0 | 0.00 | 0.05 | 0.00 | 30 | 1011.2 |
| 20260905003124 | 98 | 328 | 4.0 | 8.0 | 0.00 | 0.05 | 0.00 | 30 | 1011.2 |
| 20260905002123 | 98 | 289 | 4.0 | 8.0 | 0.00 | 0.05 | 0.00 | 30 | 1011.2 |
| 20260905001123 | 97 | 333 | 5.0 | 9.0 | 0.00 | 0.05 | 0.00 | 31 | 1011.3 |
| 20260905000123 | 97 | 336 | 6.0 | 10.0 | 0.00 | 0.05 | 0.00 | 31 | 1011.4 |
| 20260904235123 | 97 | 330 | 4.0 | 8.0 | 0.00 | 0.05 | 0.00 | 31 | 1011.2 |
| 20260904234145 | 98 | 343 | 9.0 | 14.0 | 0.00 | 0.05 | 0.00 | 30 | 1011.4 |
| 20260904233123 | 99 | 353 | 6.0 | 12.0 | 0.00 | 0.05 | 0.00 | 30 | 1011.3 |
| 20260904232123 | 98 | 14 | 4.0 | 11.0 | 0.00 | 0.05 | 0.00 | 31 | 1011.4 |
| 20260904231123 | 99 | 358 | 7.0 | 11.0 | 0.00 | 0.05 | 0.00 | 30 | 1011.4 |
| 20260904230123 | 98 | 350 | 3.0 | 6.0 | 0.00 | 0.05 | 0.00 | 31 | 1011.5 |
| 20260904225123 | 98 | 318 | 7.0 | 12.0 | 0.00 | 0.05 | 0.00 | 31 | 1011.7 |
| 20260904224144 | 98 | 321 | 5.0 | 9.0 | 0.00 | 0.05 | 0.00 | 30 | 1011.8 |
| 20260904223123 | 99 | 331 | 8.0 | 13.0 | 0.00 | 0.05 | 0.00 | 30 | 1011.9 |
| 20260904222144 | 98 | 359 | 6.0 | 10.0 | 0.00 | 0.05 | 0.00 | 31 | 1011.9 |
| 20260904221124 | 98 | 336 | 8.0 | 13.0 | 0.00 | 0.05 | 0.00 | 31 | 1012.1 |
| 20260904220123 | 98 | 341 | 5.0 | 9.0 | 0.00 | 0.05 | 0.00 | 30 | 1012.2 |
| 20260904215123 | 100 | 355 | 8.0 | 16.0 | 0.00 | 0.05 | 0.00 | 29 | 1012.2 |
| 20260904214123 | 98 | 37 | 5.0 | 11.0 | 0.00 | 0.05 | 0.00 | 31 | 1012.4 |
| 20260904213124 | 99 | 19 | 6.0 | 11.0 | 0.00 | 0.05 | 0.00 | 30 | 1012.5 |
| 20260904212123 | 98 | 345 | 4.0 | 11.0 | 0.00 | 0.05 | 0.00 | 32 | 1012.6 |
| 20260904211123 | 98 | 359 | 8.0 | 13.0 | 0.00 | 0.05 | 0.00 | 31 | 1012.7 |
| 20260904210123 | 97 | 356 | 5.0 | 11.0 | 0.00 | 0.05 | 0.00 | 35 | 1012.8 |
| 20260904205123 | 97 | 356 | 7.0 | 13.0 | 0.00 | 0.05 | 0.00 | 35 | 1012.9 |
| 20260904204144 | 97 | 50 | 2.0 | 6.0 | 0.00 | 0.05 | 0.00 | 35 | 1013.0 |
| 20260904203144 | 96 | 305 | 5.0 | 13.0 | 0.00 | 0.05 | 0.00 | 37 | 1013.2 |
| 20260904202124 | 97 | 329 | 7.0 | 15.0 | 0.00 | 0.05 | 0.00 | 36 | 1013.3 |
| 20260904201124 | 96 | 331 | 6.0 | 11.0 | 0.00 | 0.05 | 0.00 | 36 | 1013.5 |
| 20260904200123 | 96 | 346 | 9.0 | 13.0 | 0.00 | 0.05 | 0.00 | 35 | 1013.7 |
| 20260904195123 | 95 | 336 | 4.0 | 9.0 | 0.00 | 0.05 | 0.00 | 37 | 1013.7 |
| 20260904194123 | 95 | 4 | 3.0 | 12.0 | 0.00 | 0.05 | 0.00 | 38 | 1014.0 |
| 20260904193144 | 96 | 354 | 9.0 | 14.0 | 0.00 | 0.05 | 0.00 | 36 | 1014.0 |
| 20260904192123 | 94 | 359 | 6.0 | 8.0 | 0.00 | 0.05 | 0.00 | 41 | 1014.2 |
| 20260904191124 | 94 | 358 | 7.0 | 14.0 | 0.00 | 0.05 | 0.00 | 41 | 1014.4 |
| 20260904190144 | 94 | 7 | 7.0 | 12.0 | 0.00 | 0.05 | 0.00 | 41 | 1014.6 |
| 20260904185123 | 93 | 2 | 6.0 | 10.0 | 0.00 | 0.05 | 0.00 | 43 | 1014.7 |
| 20260904184123 | 94 | 357 | 9.0 | 18.0 | 0.00 | 0.05 | 0.00 | 42 | 1014.9 |
| 20260904183124 | 94 | 5 | 8.0 | 16.0 | 0.00 | 0.05 | 0.00 | 41 | 1015.0 |
| 20260904182123 | 93 | 347 | 9.0 | 15.0 | 0.00 | 0.05 | 0.00 | 42 | 1015.1 |
| 20260904181123 | 93 | 355 | 7.0 | 14.0 | 0.00 | 0.05 | 0.00 | 43 | 1015.1 |
| 20260904180123 | 92 | 347 | 8.0 | 13.0 | 0.00 | 0.05 | 0.00 | 42 | 1015.3 |
| 20260904175123 | 93 | 355 | 7.0 | 14.0 | 0.00 | 0.05 | 0.00 | 43 | 1015.2 |
| 20260904174123 | 92 | 359 | 9.0 | 15.0 | 0.00 | 0.05 | 0.00 | 47 | 1015.2 |
| 20260904173123 | 91 | 360 | 9.0 | 15.0 | 0.00 | 0.05 | 0.00 | 47 | 1015.3 |
| 20260904172123 | 92 | 6 | 8.0 | 13.0 | 0.00 | 0.05 | 0.00 | 46 | 1015.4 |
| 20260904171123 | 91 | 3 | 8.0 | 17.0 | 0.00 | 0.05 | 0.00 | 47 | 1015.3 |
| 20260904170123 | 91 | 2 | 10.0 | 17.0 | 0.00 | 0.05 | 0.00 | 49 | 1015.5 |
| 20260904165123 | 90 | 0 | 10.0 | 15.0 | 0.00 | 0.05 | 0.00 | 47 | 1015.3 |
| 20260904164123 | 90 | 4 | 6.0 | 12.0 | 0.00 | 0.05 | 0.00 | 50 | 1015.3 |
| 20260904163123 | 90 | 1 | 7.0 | 14.0 | 0.00 | 0.05 | 0.00 | 51 | 1015.2 |
| 20260904162122 | 89 | 359 | 8.0 | 15.0 | 0.00 | 0.05 | 0.00 | 53 | 1015.1 |
| 20260904161144 | 89 | 2 | 10.0 | 15.0 | 0.00 | 0.05 | 0.00 | 53 | 1015.2 |
| 20260904160124 | 89 | 4 | 10.0 | 17.0 | 0.00 | 0.05 | 0.00 | 54 | 1015.2 |
| 20260904155124 | 88 | 7 | 10.0 | 14.0 | 0.00 | 0.05 | 0.00 | 54 | 1015.0 |
| 20260904154144 | 88 | 11 | 8.0 | 14.0 | 0.00 | 0.05 | 0.00 | 55 | 1015.0 |
| 20260904153145 | 88 | 5 | 9.0 | 13.0 | 0.00 | 0.05 | 0.00 | 55 | 1015.0 |
| 20260904152124 | 87 | 3 | 8.0 | 13.0 | 0.00 | 0.05 | 0.00 | 56 | 1015.0 |
| 20260904151123 | 87 | 9 | 9.0 | 13.0 | 0.00 | 0.05 | 0.00 | 56 | 1015.0 |
| 20260904150123 | 87 | 2 | 7.0 | 13.0 | 0.00 | 0.05 | 0.00 | 57 | 1015.0 |
| 20260904145122 | 86 | 11 | 8.0 | 12.0 | 0.00 | 0.05 | 0.00 | 57 | 1014.9 |
| 20260904144123 | 86 | 13 | 7.0 | 13.0 | 0.00 | 0.05 | 0.00 | 58 | 1014.8 |
| 20260904143123 | 85 | 18 | 6.0 | 10.0 | 0.00 | 0.05 | 0.00 | 59 | 1014.7 |
| 20260904142122 | 85 | 6 | 7.0 | 13.0 | 0.00 | 0.05 | 0.00 | 60 | 1014.6 |
| 20260904141123 | 84 | 7 | 7.0 | 11.0 | 0.00 | 0.05 | 0.00 | 61 | 1014.6 |
| 20260904140122 | 84 | 8 | 7.0 | 13.0 | 0.00 | 0.05 | 0.00 | 61 | 1014.4 |
| 20260904135123 | 83 | 11 | 8.0 | 12.0 | 0.00 | 0.05 | 0.00 | 62 | 1014.2 |
| 20260904134145 | 83 | 15 | 6.0 | 11.0 | 0.00 | 0.05 | 0.00 | 62 | 1014.2 |
| 20260904133123 | 83 | 16 | 5.0 | 9.0 | 0.00 | 0.05 | 0.00 | 62 | 1014.1 |
| 20260904132122 | 83 | 26 | 6.0 | 9.0 | 0.00 | 0.05 | 0.00 | 62 | 1013.8 |
| 20260904131124 | 83 | 73 | 6.0 | 12.0 | 0.00 | 0.05 | 0.00 | 62 | 1013.5 |
| 20260904130123 | 83 | 29 | 7.0 | 10.0 | 0.00 | 0.05 | 0.00 | 62 | 1013.5 |
| 20260904125124 | 83 | 29 | 5.0 | 10.0 | 0.00 | 0.05 | 0.00 | 62 | 1013.4 |
| 20260904124123 | 83 | 21 | 5.0 | 10.0 | 0.00 | 0.05 | 0.00 | 62 | 1013.3 |
| 20260904123123 | 83 | 13 | 5.0 | 9.0 | 0.00 | 0.05 | 0.00 | 61 | 1013.2 |
| 20260904122123 | 83 | 8 | 6.0 | 10.0 | 0.00 | 0.05 | 0.00 | 61 | 1013.1 |
| 20260904121144 | 83 | 19 | 5.0 | 9.0 | 0.00 | 0.05 | 0.00 | 61 | 1013.1 |
| 20260904120123 | 83 | 12 | 4.0 | 8.0 | 0.00 | 0.05 | 0.00 | 61 | 1013.1 |
| 20260904115124 | 84 | 12 | 5.0 | 8.0 | 0.00 | 0.05 | 0.00 | 60 | 1013.0 |
| 20260904114124 | 84 | 23 | 6.0 | 12.0 | 0.00 | 0.05 | 0.00 | 60 | 1013.0 |
| 20260904113122 | 84 | 31 | 6.0 | 10.0 | 0.00 | 0.05 | 0.00 | 60 | 1012.9 |
| 20260904112145 | 84 | 33 | 5.0 | 9.0 | 0.00 | 0.05 | 0.00 | 60 | 1013.0 |
| 20260904111124 | 84 | 16 | 5.0 | 9.0 | 0.00 | 0.05 | 0.00 | 60 | 1012.9 |
| 20260904110123 | 84 | 20 | 6.0 | 11.0 | 0.00 | 0.05 | 0.00 | 59 | 1013.0 |
| 20260904105124 | 84 | 32 | 5.0 | 9.0 | 0.00 | 0.05 | 0.00 | 59 | 1013.0 |
| 20260904104123 | 84 | 11 | 5.0 | 9.0 | 0.00 | 0.05 | 0.00 | 59 | 1012.8 |
| 20260904103124 | 84 | 7 | 4.0 | 8.0 | 0.00 | 0.05 | 0.00 | 59 | 1012.8 |
| 20260904102123 | 84 | 24 | 4.0 | 6.0 | 0.00 | 0.05 | 0.00 | 59 | 1012.7 |
| 20260904101123 | 84 | 14 | 3.0 | 6.0 | 0.00 | 0.05 | 0.00 | 59 | 1012.6 |
| 20260904100124 | 84 | 16 | 4.0 | 9.0 | 0.00 | 0.05 | 0.00 | 58 | 1012.6 |
| 20260904095123 | 85 | 89 | 5.0 | 9.0 | 0.00 | 0.05 | 0.00 | 58 | 1012.7 |
| 20260904094123 | 85 | 60 | 4.0 | 8.0 | 0.00 | 0.05 | 0.00 | 59 | 1012.6 |
| 20260904093143 | 85 | 34 | 5.0 | 8.0 | 0.00 | 0.05 | 0.00 | 58 | 1012.6 |
| 20260904092123 | 85 | 11 | 4.0 | 8.0 | 0.00 | 0.05 | 0.00 | 58 | 1012.5 |
| 20260904091123 | 85 | 22 | 4.0 | 8.0 | 0.00 | 0.05 | 0.00 | 58 | 1012.5 |
| 20260904090143 | 85 | 18 | 5.0 | 10.0 | 0.00 | 0.05 | 0.00 | 58 | 1012.5 |
| 20260904085123 | 85 | 43 | 5.0 | 9.0 | 0.00 | 0.05 | 0.00 | 58 | 1012.5 |
| 20260904084143 | 85 | 21 | 6.0 | 10.0 | 0.00 | 0.05 | 0.00 | 58 | 1012.6 |
| 20260904083143 | 85 | 13 | 5.0 | 10.0 | 0.00 | 0.05 | 0.00 | 57 | 1012.6 |
| 20260904082145 | 85 | 10 | 6.0 | 11.0 | 0.00 | 0.05 | 0.00 | 57 | 1012.8 |
| 20260904081122 | 85 | 9 | 9.0 | 13.0 | 0.00 | 0.05 | 0.00 | 57 | 1012.8 |
| 20260904080123 | 85 | 8 | 6.0 | 12.0 | 0.00 | 0.05 | 0.00 | 57 | 1012.8 |
| 20260904075122 | 86 | 11 | 6.0 | 12.0 | 0.00 | 0.05 | 0.00 | 57 | 1012.7 |
| 20260904074124 | 86 | 12 | 8.0 | 12.0 | 0.00 | 0.05 | 0.00 | 56 | 1012.7 |
| 20260904073122 | 86 | 8 | 8.0 | 12.0 | 0.00 | 0.05 | 0.00 | 56 | 1012.7 |
| 20260904072122 | 86 | 1 | 9.0 | 14.0 | 0.00 | 0.05 | 0.00 | 55 | 1012.7 |
| 20260904071122 | 87 | 2 | 9.0 | 14.0 | 0.00 | 0.05 | 0.00 | 55 | 1012.6 |
| 20260904070122 | 87 | 3 | 9.0 | 14.0 | 0.00 | 0.05 | 0.00 | 54 | 1012.6 |
| 20260904065124 | 87 | 68 | 8.0 | 13.0 | 0.00 | 0.05 | 0.05 | 53 | 1012.6 |
| 20260904064145 | 87 | 5 | 9.0 | 16.0 | 0.00 | 0.05 | 0.05 | 53 | 1012.5 |
| 20260904063143 | 87 | 9 | 7.0 | 14.0 | 0.00 | 0.05 | 0.05 | 53 | 1012.5 |
| 20260904062123 | 87 | 8 | 7.0 | 11.0 | 0.00 | 0.05 | 0.05 | 53 | 1012.3 |
| 20260904061122 | 88 | 9 | 9.0 | 13.0 | 0.00 | 0.05 | 0.05 | 52 | 1012.2 |
| 20260904060143 | 88 | 11 | 10.0 | 15.0 | 0.00 | 0.05 | 0.05 | 52 | 1012.2 |
| 20260904055143 | 88 | 23 | 8.0 | 14.0 | 0.00 | 0.05 | 0.05 | 51 | 1012.1 |
| 20260904054124 | 88 | 27 | 10.0 | 16.0 | 0.00 | 0.05 | 0.05 | 50 | 1011.9 |
| 20260904053122 | 88 | 46 | 8.0 | 14.0 | 0.00 | 0.05 | 0.05 | 50 | 1012.1 |